Rockwood, MI

9:43 PM EST on December 10, 2016 (GMT -0500)
Grosse Ile Municipal

Weather History for KONZ - May, 2013

Change the Weather History Date:

Monday, May 6, 2013

  Actual Average (KDTW) Record (KDTW)
Temperature  
Mean Temperature 60 °F -  
Max Temperature 71 °F 67 °F 90 °F (1949)
Min Temperature 48 °F 44 °F 31 °F (1974)
Degree Days  
Heating Degree Days 6    
Growing Degree Days 10 (Base 50)    
Moisture  
Dew Point 44 °F    
Average Humidity 57    
Maximum Humidity 82    
Minimum Humidity 31    
Precipitation  
Precipitation 0.00 in - - ()
Sea Level Pressure  
Sea Level Pressure 30.02 in    
Wind  
Wind Speed 6 mph (East)    
Max Wind Speed 9 mph    
Max Gust Speed -    
Visibility 10 miles    
Events      
Averages and records for this station are not official NWS values.
T = Trace of Precipitation, MM = Missing Value Source: NWS Daily Summary

Daily Weather History Graph

Daily Weather History Graph

Search for Another Location

Airport or City:

Trip Planner

Search our weather history database for the weather conditions in past years. The results will help you decide how hot, cold, wet, or windy it might be!

Date:

Astronomy

May. 06, 2013 Rise Set
Actual Time 6:21 AM EDT 8:37 PM EDT
Civil Twilight 5:50 AM EDT 9:08 PM EDT
Nautical Twilight 5:12 AM EDT 9:47 PM EDT
Astronomical Twilight 4:30 AM EDT 10:29 PM EDT
Moon 4:26 AM EDT (5/6) 5:33 PM EDT (5/6)
Length of Visible Light 15h 17m
Length of Day
14h 15m
Waning Crescent, 11% of the Moon is Illuminated
May 6
Waning Crescent
May 9
New
May 18
First Quarter
May 25
Full
May 31
Last Quarter

Hourly Weather History & Observations

Time (EDT) Temp. Dew Point Humidity Pressure Visibility Wind Dir Wind Speed Gust Speed Precip Events Conditions
12:14 AM 57.2 °F 42.8 °F 59% 30.02 in 10.0 mi NE 6.9 mph - N/A   Clear
12:34 AM 55.4 °F 44.6 °F 67% 30.02 in 10.0 mi NE 8.1 mph - N/A   Clear
12:54 AM 55.4 °F 44.6 °F 67% 30.02 in 10.0 mi NE 8.1 mph - N/A   Clear
1:15 AM 53.6 °F 44.6 °F 72% 30.02 in 10.0 mi NE 6.9 mph - N/A   Clear
1:34 AM 53.6 °F 44.6 °F 72% 30.01 in 10.0 mi NE 6.9 mph - N/A   Clear
1:54 AM 53.6 °F 46.4 °F 77% 30.02 in 10.0 mi NE 6.9 mph - N/A   Clear
2:14 AM 51.8 °F 46.4 °F 82% 30.01 in 10.0 mi ENE 6.9 mph - N/A   Clear
2:34 AM 51.8 °F 46.4 °F 82% 30.01 in 10.0 mi NE 8.1 mph - N/A   Clear
2:55 AM 51.8 °F 46.4 °F 82% 30.01 in 10.0 mi ENE 8.1 mph - N/A   Clear
3:14 AM 51.8 °F 44.6 °F 76% 30.00 in 10.0 mi ENE 5.8 mph - N/A   Clear
3:34 AM 50.0 °F 44.6 °F 82% 30.00 in 10.0 mi ENE 5.8 mph - N/A   Clear
3:54 AM 50.0 °F 42.8 °F 76% 30.00 in 10.0 mi ENE 5.8 mph - N/A   Clear
4:14 AM 50.0 °F 42.8 °F 76% 30.00 in 10.0 mi ENE 4.6 mph - N/A   Clear
4:34 AM 50.0 °F 41.0 °F 71% 30.00 in 10.0 mi ENE 5.8 mph - N/A   Clear
4:54 AM 48.2 °F 41.0 °F 76% 30.00 in 10.0 mi ENE 6.9 mph - N/A   Clear
5:14 AM 48.2 °F 39.2 °F 71% 30.01 in 10.0 mi ENE 6.9 mph - N/A   Clear
5:34 AM 48.2 °F 39.2 °F 71% 30.01 in 10.0 mi ENE 6.9 mph - N/A   Clear
5:54 AM 48.2 °F 39.2 °F 71% 30.01 in 10.0 mi ENE 6.9 mph - N/A   Clear
6:14 AM 48.2 °F 37.4 °F 66% 30.02 in 10.0 mi ENE 5.8 mph - N/A   Clear
6:34 AM 48.2 °F 37.4 °F 66% 30.02 in 10.0 mi ENE 5.8 mph - N/A   Clear
6:54 AM 48.2 °F 37.4 °F 66% 30.03 in 10.0 mi NE 5.8 mph - N/A   Clear
7:14 AM 50.0 °F 39.2 °F 66% 30.03 in 10.0 mi ENE 5.8 mph - N/A   Clear
7:34 AM 51.8 °F 39.2 °F 62% 30.04 in 10.0 mi ENE 5.8 mph - N/A   Clear
7:54 AM 51.8 °F 39.2 °F 62% 30.05 in 10.0 mi ENE 5.8 mph - N/A   Clear
8:14 AM 53.6 °F 39.2 °F 58% 30.05 in 10.0 mi ENE 5.8 mph - N/A   Clear
8:34 AM 55.4 °F 39.2 °F 54% 30.05 in 10.0 mi ENE 5.8 mph - N/A   Clear
8:54 AM 55.4 °F 41.0 °F 58% 30.05 in 10.0 mi ENE 4.6 mph - N/A   Clear
9:14 AM 57.2 °F 42.8 °F 59% 30.06 in 10.0 mi NE 5.8 mph - N/A   Clear
9:34 AM 59.0 °F 42.8 °F 55% 30.06 in 10.0 mi East 4.6 mph - N/A   Clear
9:54 AM 60.8 °F 42.8 °F 52% 30.06 in 10.0 mi East 3.5 mph - N/A   Clear
10:14 AM 62.6 °F 39.2 °F 42% 30.06 in 10.0 mi East 5.8 mph - N/A   Clear
10:34 AM 62.6 °F 41.0 °F 45% 30.06 in 10.0 mi East 5.8 mph - N/A   Clear
10:55 AM 62.6 °F 42.8 °F 48% 30.06 in 10.0 mi ESE 5.8 mph - N/A   Clear
11:14 AM 64.4 °F 42.8 °F 45% 30.06 in 10.0 mi ESE 4.6 mph - N/A   Clear
11:34 AM 64.4 °F 42.8 °F 45% 30.06 in 10.0 mi Calm Calm - N/A   Clear
11:55 AM 62.6 °F 46.4 °F 55% 30.06 in 10.0 mi South 8.1 mph - N/A   Clear
12:14 PM 60.8 °F 46.4 °F 59% 30.05 in 10.0 mi South 6.9 mph - N/A   Clear
12:34 PM 62.6 °F 46.4 °F 55% 30.04 in 10.0 mi South 5.8 mph - N/A   Clear
12:54 PM 62.6 °F 48.2 °F 59% 30.04 in 10.0 mi SSW 5.8 mph - N/A   Clear
1:14 PM 66.2 °F 44.6 °F 46% 30.03 in 10.0 mi East 4.6 mph - N/A   Clear
1:34 PM 69.8 °F 46.4 °F 43% 30.03 in 10.0 mi East 3.5 mph - N/A   Clear
1:54 PM 64.4 °F 51.8 °F 64% 30.03 in 10.0 mi SSW 9.2 mph - N/A   Clear
2:14 PM 69.8 °F 46.4 °F 43% 30.02 in 10.0 mi ENE 4.6 mph - N/A   Clear
2:34 PM 71.6 °F 48.2 °F 43% 30.01 in 10.0 mi ENE 9.2 mph - N/A   Scattered Clouds
2:54 PM 69.8 °F 46.4 °F 43% 30.01 in 10.0 mi East 6.9 mph - N/A   Clear
3:14 PM 69.8 °F 46.4 °F 43% 30.01 in 10.0 mi East 6.9 mph - N/A   Clear
3:34 PM 71.6 °F 48.2 °F 43% 30.00 in 10.0 mi East 8.1 mph - N/A   Clear
3:54 PM 71.6 °F 48.2 °F 43% 30.00 in 10.0 mi ESE 6.9 mph - N/A   Clear
4:14 PM 66.2 °F 51.8 °F 60% 29.99 in 10.0 mi South 5.8 mph - N/A   Clear
4:35 PM 64.4 °F 50.0 °F 59% 29.99 in 10.0 mi South 5.8 mph - N/A   Clear
4:54 PM 66.2 °F 51.8 °F 60% 29.99 in 10.0 mi Calm Calm - N/A   Clear
5:14 PM 66.2 °F 53.6 °F 64% 29.98 in 10.0 mi South 9.2 mph - N/A   Clear
5:34 PM 64.4 °F 50.0 °F 59% 29.98 in 10.0 mi South 5.8 mph - N/A   Clear
5:54 PM 64.4 °F 51.8 °F 64% 29.98 in 10.0 mi South 4.6 mph - N/A   Clear
6:14 PM 64.4 °F 51.8 °F 64% 29.98 in 10.0 mi Calm Calm - N/A   Clear
6:54 PM 69.8 °F 39.2 °F 33% 29.98 in 10.0 mi ENE 6.9 mph - N/A   Clear
7:14 PM 69.8 °F 37.4 °F 31% 29.98 in 10.0 mi East 5.8 mph - N/A   Clear
7:34 PM 69.8 °F 39.2 °F 33% 29.98 in 10.0 mi East 5.8 mph - N/A   Clear
7:54 PM 68.0 °F 41.0 °F 37% 29.98 in 10.0 mi East 4.6 mph - N/A   Clear
8:14 PM 66.2 °F 41.0 °F 40% 29.99 in 10.0 mi Calm Calm - N/A   Clear
8:34 PM 66.2 °F 41.0 °F 40% 29.99 in 10.0 mi Calm Calm - N/A   Clear
8:54 PM 66.2 °F 42.8 °F 43% 29.99 in 10.0 mi Calm Calm - N/A   Clear
9:14 PM 64.4 °F 42.8 °F 45% 30.00 in 10.0 mi Calm Calm - N/A   Clear
9:34 PM 62.6 °F 46.4 °F 55% 30.00 in 10.0 mi Calm Calm - N/A   Clear
9:54 PM 57.2 °F 51.8 °F 82% 30.00 in 10.0 mi Calm Calm - N/A   Clear
10:14 PM 60.8 °F 42.8 °F 52% 30.01 in 10.0 mi East 5.8 mph - N/A   Clear
10:34 PM 60.8 °F 41.0 °F 48% 30.02 in 10.0 mi Calm Calm - N/A   Clear
10:54 PM 59.0 °F 37.4 °F 45% 30.02 in 10.0 mi ENE 5.8 mph - N/A   Clear
11:14 PM 59.0 °F 37.4 °F 45% 30.01 in 10.0 mi Calm Calm - N/A   Scattered Clouds
11:34 PM 59.0 °F 35.6 °F 42% 30.01 in 10.0 mi Calm Calm - N/A   Scattered Clouds
11:54 PM 57.2 °F 35.6 °F 44% 30.01 in 10.0 mi Calm Calm - N/A   Scattered Clouds